Location: Mahannah Oil Field
(37.4664°N, 96.6003°W)
Time: 11:04:37
(UTC+00:00)

Vanguard 2 - Pass Details

Date: 28 January 2021
Orbit: 552 x 2938 km, 32.9° (Epoch: 08 March)

Event Time Altitude Azimuth Distance (km) Brightness Sun altitude
Rises 01:43:30 0° 267° (W) 2,796 11.9 -23.5°
Reaches altitude 10° 01:45:43 10° 256° (WSW) 2,003 10.7 -23.9°
Maximum altitude 01:49:40 30° 194° (SSW) 1,336 8.9 -24.7°
Enters shadow 01:51:39 24° 159° (SSE) 1,680 9.1 -25.1°
